This is the latest recevied weather packets stored in our database for station/object K4AGR-13. If no packets are shown the sender has not sent any weather packets the latest 10 day(s).
| Time | Temp. | Humidity | Pressure | Rain* | Wind** | Luminosity | Snow |
|---|---|---|---|---|---|---|---|
| 1777729393 | 12.78° C | 94% | 1011.8 hPa | 0 mm | - | 83 W/m² | - |
| 1777729089 | 12.78° C | 95% | 1011.4 hPa | 1.27 mm | - | 99 W/m² | - |
| 1777728786 | 12.78° C | 95% | 1011.6 hPa | 1.27 mm | - | 161 W/m² | - |
| 1777728483 | 12.78° C | 95% | 1011.8 hPa | 0 mm | - | 150 W/m² | - |
| 1777728180 | 12.78° C | 95% | 1012.1 hPa | 1.78 mm | - | 83 W/m² | - |
| 1777727877 | 12.78° C | 95% | 1011.8 hPa | 1.78 mm | - | 134 W/m² | - |
| 1777727574 | 12.78° C | 94% | 1012 hPa | 0 mm | - | 72 W/m² | - |
| 1777727271 | 12.78° C | 95% | 1011.8 hPa | 0 mm | - | 63 W/m² | - |
| 1777726969 | 12.78° C | 95% | 1012 hPa | 0 mm | - | 114 W/m² | - |
| 1777726665 | 12.78° C | 95% | 1012.3 hPa | 0 mm | - | 131 W/m² | - |
| 1777726362 | 12.22° C | 95% | 1011.8 hPa | 1.27 mm | - | 120 W/m² | - |
| 1777726059 | 12.22° C | 95% | 1011.5 hPa | 1.27 mm | - | 127 W/m² | - |
| 1777725756 | 12.22° C | 95% | 1012.6 hPa | 0 mm | - | 52 W/m² | - |
| 1777725455 | 12.22° C | 95% | 1012.2 hPa | 0 mm | - | 29 W/m² | - |
| 1777725151 | 12.22° C | 95% | 1012 hPa | 0 mm | - | 18 W/m² | - |
| 1777724848 | 12.22° C | 96% | 1011.6 hPa | 0 mm | - | 22 W/m² | - |
| 1777724544 | 12.22° C | 96% | 1011.9 hPa | 0 mm | - | 21 W/m² | - |
| 1777724243 | 12.22° C | 96% | 1011.5 hPa | 0 mm | - | 23 W/m² | - |
| 1777723940 | 12.22° C | 96% | 1011.3 hPa | 0 mm | - | 18 W/m² | - |
| 1777723636 | 12.22° C | 96% | 1011.5 hPa | 0 mm | - | 27 W/m² | - |
| 1777723333 | 12.22° C | 97% | 1012.1 hPa | 1.78 mm | - | 13 W/m² | - |
| 1777723031 | 12.22° C | 97% | 1011.9 hPa | 1.78 mm | - | 18 W/m² | - |
| 1777722728 | 12.22° C | 97% | 1012 hPa | 3.05 mm | - | 15 W/m² | - |
| 1777722423 | 12.22° C | 96% | 1012.2 hPa | 7.87 mm | - | 16 W/m² | - |
| 1777722121 | 12.22° C | 96% | 1011.9 hPa | 6.1 mm | - | 15 W/m² | - |
* Rain latest hour (hover to see other rain measurements)
** Current wind speed in m/s (hover to see current wind gust speed)